| time (UTC) | temp F | wind direction | speed MPH | gust MPH | rain 1hr in | rain 24hr in | rain mn in | humidity % | barometer mb |
| 20260510163046 | 73 | 0 | 0.0 | 0.0 | 0.00 | 0.01 | 0.00 | 81 | 1017.9 |
| 20260510161547 | 73 | 0 | 0.0 | 0.0 | 0.00 | 0.01 | 0.00 | 80 | 1018.2 |
| 20260510160120 | 72 | 0 | 0.0 | 0.0 | 0.00 | 0.01 | 0.00 | 81 | 1018.2 |
| 20260510154545 | 72 | 0 | 0.0 | 0.0 | 0.00 | 0.13 | 0.00 | 82 | 1018.1 |
| 20260510153045 | 71 | 0 | 0.0 | 0.0 | 0.00 | 0.13 | 0.00 | 85 | 1018.1 |
| 20260510151543 | 70 | 0 | 0.0 | 0.0 | 0.00 | 0.13 | 0.00 | 84 | 1017.9 |
| 20260510150047 | 70 | 0 | 0.0 | 0.0 | 0.00 | 0.13 | 0.00 | 87 | 1018.0 |
| 20260510144541 | 68 | 0 | 0.0 | 0.0 | 0.00 | 0.31 | 0.00 | 89 | 1018.2 |
| 20260510143042 | 68 | 0 | 0.0 | 0.0 | 0.00 | 0.31 | 0.00 | 93 | 1018.1 |
| 20260510141541 | 66 | 0 | 0.0 | 0.0 | 0.00 | 0.31 | 0.00 | 94 | 1018.0 |
| 20260510140049 | 66 | 0 | 0.0 | 0.0 | 0.00 | 0.31 | 0.00 | 96 | 1017.9 |
| 20260510134544 | 65 | 0 | 0.0 | 0.0 | 0.00 | 0.47 | 0.00 | 97 | 1017.7 |
| 20260510133043 | 65 | 0 | 0.0 | 0.0 | 0.00 | 0.47 | 0.00 | 97 | 1017.5 |
| 20260510131539 | 64 | 0 | 0.0 | 0.0 | 0.00 | 0.47 | 0.00 | 98 | 1017.4 |
| 20260510130042 | 64 | 0 | 0.0 | 0.0 | 0.00 | 0.47 | 0.00 | 98 | 1017.4 |
| 20260510124545 | 63 | 0 | 0.0 | 0.0 | 0.00 | 0.80 | 0.00 | 98 | 1017.3 |
| 20260510123046 | 63 | 0 | 0.0 | 0.0 | 0.00 | 0.80 | 0.00 | 98 | 1017.1 |
| 20260510121546 | 63 | 0 | 0.0 | 0.0 | 0.00 | 0.80 | 0.00 | 98 | 1016.7 |
| 20260510120046 | 63 | 0 | 0.0 | 0.0 | 0.00 | 0.80 | 0.00 | 98 | 1016.6 |
| 20260510114549 | 62 | 0 | 0.0 | 0.0 | 0.00 | 0.80 | 0.00 | 98 | 1016.3 |
| 20260510113045 | 62 | 0 | 0.0 | 0.0 | 0.00 | 0.80 | 0.00 | 98 | 1016.2 |
| 20260510111604 | 62 | 0 | 0.0 | 0.0 | 0.00 | 0.80 | 0.00 | 98 | 1015.8 |
| 20260510110045 | 62 | 0 | 0.0 | 0.0 | 0.00 | 0.80 | 0.00 | 98 | 1015.6 |
| 20260510104544 | 62 | 0 | 0.0 | 0.0 | 0.00 | 0.80 | 0.00 | 98 | 1015.3 |
| 20260510103041 | 62 | 0 | 0.0 | 0.0 | 0.00 | 0.80 | 0.00 | 98 | 1015.0 |
| 20260510101551 | 62 | 0 | 0.0 | 0.0 | 0.00 | 0.80 | 0.00 | 98 | 1014.9 |
| 20260510100046 | 62 | 0 | 0.0 | 0.0 | 0.00 | 0.80 | 0.00 | 98 | 1014.9 |
| 20260510094544 | 61 | 0 | 0.0 | 0.0 | 0.00 | 0.80 | 0.00 | 97 | 1014.8 |
| 20260510093100 | 62 | 0 | 0.0 | 0.0 | 0.00 | 0.80 | 0.00 | 97 | 1014.7 |
| 20260510091544 | 62 | 0 | 0.0 | 0.0 | 0.00 | 0.80 | 0.00 | 98 | 1014.6 |
| 20260510090053 | 62 | 0 | 0.0 | 0.0 | 0.00 | 0.80 | 0.00 | 97 | 1014.6 |
| 20260510084543 | 62 | 0 | 0.0 | 0.0 | 0.00 | 0.80 | 0.00 | 97 | 1014.7 |
| 20260510083101 | 62 | 0 | 0.0 | 0.0 | 0.00 | 0.80 | 0.00 | 97 | 1014.5 |
| 20260510081600 | 62 | 0 | 0.0 | 0.0 | 0.00 | 0.80 | 0.00 | 97 | 1014.3 |
| 20260510080052 | 63 | 0 | 0.0 | 0.0 | 0.00 | 0.80 | 0.00 | 97 | 1014.1 |
| 20260510074544 | 63 | 0 | 0.0 | 0.0 | 0.00 | 0.80 | 0.00 | 97 | 1014.1 |
| 20260510073045 | 63 | 0 | 0.0 | 0.0 | 0.00 | 0.80 | 0.00 | 97 | 1013.7 |
| 20260510071548 | 63 | 0 | 0.0 | 0.0 | 0.00 | 0.80 | 0.00 | 97 | 1013.5 |
| 20260510070043 | 63 | 0 | 0.0 | 0.0 | 0.00 | 0.80 | 0.00 | 97 | 1013.5 |
| 20260510064551 | 63 | 0 | 0.0 | 0.0 | 0.00 | 0.80 | 0.00 | 97 | 1013.7 |
| 20260510063045 | 64 | 0 | 0.0 | 0.0 | 0.00 | 0.80 | 0.00 | 97 | 1013.5 |
| 20260510061545 | 64 | 0 | 0.0 | 0.0 | 0.00 | 0.80 | 0.00 | 97 | 1013.3 |
| 20260510060043 | 64 | 0 | 0.0 | 0.0 | 0.00 | 0.80 | 0.00 | 97 | 1013.5 |
| 20260510054547 | 64 | 0 | 0.0 | 0.0 | 0.00 | 0.80 | 0.00 | 97 | 1013.8 |
| 20260510053042 | 64 | 0 | 0.0 | 0.0 | 0.00 | 0.80 | 0.00 | 97 | 1014.2 |
| 20260510051545 | 64 | 0 | 0.0 | 0.0 | 0.00 | 0.80 | 0.00 | 97 | 1014.3 |
| 20260510050046 | 64 | 0 | 0.0 | 0.0 | 0.00 | 0.80 | 0.00 | 97 | 1014.4 |
| 20260510044600 | 64 | 0 | 0.0 | 0.0 | 0.00 | 0.80 | 0.80 | 97 | 1014.6 |
| 20260510043048 | 64 | 0 | 0.0 | 0.0 | 0.00 | 0.80 | 0.80 | 97 | 1014.9 |
| 20260510041540 | 64 | 0 | 0.0 | 0.0 | 0.00 | 0.80 | 0.80 | 97 | 1014.7 |
| 20260510040050 | 64 | 0 | 0.0 | 0.0 | 0.00 | 0.80 | 0.80 | 96 | 1014.6 |
| 20260510034545 | 65 | 0 | 0.0 | 0.0 | 0.00 | 0.80 | 0.80 | 96 | 1014.1 |
| 20260510033045 | 65 | 0 | 0.0 | 0.0 | 0.00 | 0.80 | 0.80 | 96 | 1014.5 |
| 20260510031544 | 65 | 0 | 0.0 | 0.0 | 0.00 | 0.80 | 0.80 | 96 | 1014.6 |
| 20260510030043 | 65 | 0 | 0.0 | 0.0 | 0.00 | 0.80 | 0.80 | 96 | 1014.8 |
| 20260510024549 | 65 | 0 | 0.0 | 0.0 | 0.00 | 0.80 | 0.80 | 96 | 1014.2 |
| 20260510023043 | 65 | 0 | 0.0 | 0.0 | 0.00 | 0.80 | 0.80 | 96 | 1014.2 |
| 20260510021546 | 66 | 0 | 0.0 | 0.0 | 0.00 | 0.80 | 0.80 | 95 | 1014.1 |
| 20260510020052 | 66 | 0 | 0.0 | 0.0 | 0.00 | 0.80 | 0.80 | 96 | 1014.1 |
| 20260510014551 | 66 | 0 | 0.0 | 0.0 | 0.00 | 0.80 | 0.80 | 96 | 1014.4 |
| 20260510013050 | 66 | 0 | 0.0 | 0.0 | 0.00 | 0.80 | 0.80 | 95 | 1014.4 |
| 20260510011552 | 66 | 0 | 0.0 | 0.0 | 0.00 | 0.80 | 0.80 | 95 | 1013.8 |
| 20260510010059 | 66 | 0 | 0.0 | 0.0 | 0.00 | 0.80 | 0.80 | 95 | 1014.0 |
| 20260510004547 | 66 | 0 | 0.0 | 0.0 | 0.00 | 0.80 | 0.80 | 95 | 1013.9 |
| 20260510003046 | 66 | 0 | 0.0 | 0.0 | 0.00 | 0.80 | 0.80 | 94 | 1013.6 |
| 20260510001545 | 67 | 0 | 0.0 | 0.0 | 0.00 | 0.80 | 0.80 | 93 | 1013.0 |
| 20260510000044 | 67 | 0 | 0.0 | 0.0 | 0.00 | 0.80 | 0.80 | 92 | 1013.0 |
| 20260509234542 | 68 | 0 | 0.0 | 0.0 | 0.00 | 0.81 | 0.80 | 92 | 1013.4 |
| 20260509233048 | 68 | 0 | 0.0 | 0.0 | 0.00 | 0.81 | 0.80 | 91 | 1013.1 |
| 20260509231545 | 68 | 0 | 0.0 | 0.0 | 0.00 | 0.81 | 0.80 | 90 | 1012.8 |
| 20260509230046 | 69 | 0 | 0.0 | 0.0 | 0.00 | 0.81 | 0.80 | 91 | 1012.8 |
| 20260509224544 | 68 | 0 | 0.0 | 0.0 | 0.00 | 0.83 | 0.80 | 91 | 1012.7 |
| 20260509223042 | 68 | 0 | 0.0 | 0.0 | 0.00 | 0.83 | 0.80 | 92 | 1012.3 |
| 20260509221548 | 68 | 0 | 0.0 | 0.0 | 0.00 | 0.83 | 0.80 | 92 | 1012.3 |
| 20260509220049 | 68 | 0 | 0.0 | 0.0 | 0.00 | 0.83 | 0.80 | 93 | 1012.3 |
| 20260509214545 | 68 | 0 | 0.0 | 0.0 | 0.00 | 1.04 | 0.80 | 93 | 1012.5 |
| 20260509213049 | 68 | 0 | 0.0 | 0.0 | 0.00 | 1.04 | 0.80 | 92 | 1012.7 |
| 20260509211552 | 68 | 0 | 0.0 | 0.0 | 0.00 | 1.04 | 0.80 | 91 | 1012.5 |
| 20260509210044 | 68 | 0 | 0.0 | 0.0 | 0.00 | 1.04 | 0.80 | 92 | 1012.3 |
| 20260509204550 | 68 | 0 | 0.0 | 0.0 | 0.00 | 1.23 | 0.80 | 91 | 1012.3 |
| 20260509203106 | 68 | 0 | 0.0 | 0.0 | 0.00 | 1.23 | 0.80 | 89 | 1012.2 |
| 20260509201545 | 68 | 0 | 0.0 | 0.0 | 0.00 | 1.23 | 0.80 | 89 | 1012.3 |
| 20260509200056 | 68 | 0 | 0.0 | 0.0 | 0.00 | 1.23 | 0.80 | 90 | 1012.3 |
| 20260509194551 | 67 | 0 | 0.0 | 0.0 | 0.00 | 1.25 | 0.80 | 91 | 1012.1 |
| 20260509193100 | 67 | 0 | 0.0 | 0.0 | 0.00 | 1.25 | 0.80 | 91 | 1012.1 |
| 20260509191558 | 67 | 0 | 0.0 | 0.0 | 0.00 | 1.25 | 0.80 | 92 | 1012.2 |
| 20260509190045 | 66 | 0 | 0.0 | 0.0 | 0.00 | 1.25 | 0.80 | 95 | 1012.3 |
| 20260509184545 | 66 | 0 | 0.0 | 0.0 | 0.00 | 1.33 | 0.80 | 96 | 1012.3 |
| 20260509183053 | 65 | 0 | 0.0 | 0.0 | 0.00 | 1.33 | 0.80 | 96 | 1012.1 |
| 20260509181546 | 65 | 0 | 0.0 | 0.0 | 0.00 | 1.33 | 0.80 | 97 | 1012.2 |
| 20260509180044 | 65 | 0 | 0.0 | 0.0 | 0.00 | 1.33 | 0.80 | 97 | 1012.1 |
| 20260509174544 | 65 | 0 | 0.0 | 0.0 | 0.00 | 1.37 | 0.80 | 98 | 1012.3 |
| 20260509173046 | 64 | 0 | 0.0 | 0.0 | 0.00 | 1.37 | 0.80 | 98 | 1012.8 |
| 20260509171550 | 64 | 0 | 0.0 | 0.0 | 0.00 | 1.37 | 0.80 | 98 | 1013.2 |
| 20260509170046 | 64 | 0 | 0.0 | 0.0 | 0.01 | 1.37 | 0.80 | 98 | 1013.4 |
| 20260509164557 | 64 | 0 | 0.0 | 0.0 | 0.02 | 1.37 | 0.80 | 98 | 1013.8 |